This demonstration page uses our WeatherBlox Daily Observations layout. Learn more.

Left ArrowRight Arrow

Hourly Observations for April 13, 2020

Temp ( °F °C ) Dew Point ( °F °C ) Humidity (%) Winds ( mph kmh ) Pressure ( in mb ) Visibility ( mi km ) Precip ( " mm )
12:54 am 00:54 Clear 28 -2.2 19 -7.2 69 69 NNW 14 22 30.14 1021 10 16.0934 0 0
1:54 am 01:54 Clear 27 -2.8 19 -7.2 72 72 NW 13 20 30.16 1022 10 16.0934 0 0
2:54 am 02:54 Clear 26 -3.3 18 -7.8 71 71 NW 10 17 30.18 1022 10 16.0934 0 0
3:54 am 03:54 Clear 25 -3.9 17 -8.3 72 72 NW 12 19 30.19 1022 10 16.0934 0 0
4:54 am 04:54 Clear 25 -3.9 16 -8.9 69 69 NW 9 15 30.21 1023 10 16.0934 0 0
5:54 am 05:54 Clear 24 -4.4 16 -8.9 71 71 WNW 9 15 30.23 1024 10 16.0934 0 0
6:54 am 06:54 Sunny 24 -4.4 16 -8.9 71 71 WNW 9 15 30.24 1024 10 16.0934 0 0
7:54 am 07:54 Sunny 25 -3.9 15 -9.4 66 66 WNW 9 15 30.27 1025 10 16.0934 0 0
8:54 am 08:54 Sunny 29 -1.7 16 -8.9 58 58 NW 16 26 30.27 1025 10 16.0934 0 0
9:54 am 09:54 Sunny 33 0.6 16 -8.9 49 49 WNW 15 24 30.27 1025 10 16.0934 0 0
10:54 am 10:54 Sunny 37 2.8 15 -9.4 41 41 WNW 20 31 30.27 1025 10 16.0934 0 0
11:54 am 11:54 Sunny 39 3.9 12 -11.1 33 33 NW 20 31 30.28 1026 10 16.0934 0 0
12:54 pm 12:54 Mostly Sunny 40 4.4 12 -11.1 32 32 WNW 21 33 30.27 1025 10 16.0934 0 0
1:54 pm 13:54 Sunny 42 5.6 8 -13.3 24 24 NW 16 26 30.27 1025 10 16.0934 0 0
2:54 pm 14:54 Mostly Sunny 42 5.6 5 -15 21 21 NNW 21 33 30.27 1025 10 16.0934 0 0
3:54 pm 15:54 Mostly Sunny 41 5 7 -13.9 24 24 WNW 20 31 30.26 1025 10 16.0934 0 0
4:54 pm 16:54 Mostly Cloudy 43 6.1 5 -15 21 21 NW 20 31 30.25 1025 10 16.0934 0 0
5:54 pm 17:54 Mostly Sunny 41 5 6 -14.4 23 23 NW 16 26 30.27 1025 10 16.0934 0 0
6:54 pm 18:54 Sunny 39 3.9 5 -15 24 24 NW 15 24 30.27 1025 10 16.0934 0 0
7:54 pm 19:54 Sunny 37 2.8 6 -14.4 27 27 NNW 12 19 30.29 1026 10 16.0934 0 0
8:54 pm 20:54 Clear 34 1.1 8 -13.3 34 34 WNW 6 9 30.31 1026 10 16.0934 0 0
9:54 pm 21:54 Clear 30 -1.1 8 -13.3 39 39 Calm 30.35 1028 10 16.0934 0 0
10:54 pm 22:54 Clear 30 -1.1 8 -13.3 39 39 Calm 30.33 1027 10 16.0934 0 0
11:54 pm 23:54 Clear 27 -2.8 11 -11.7 51 51 Calm 30.35 1028 10 16.0934 0 0

Powered by AerisWeather